Regional Weather Roundup
Issued by NWS

Home | Current Version | Previous Version | Text Only | Print | Product List | Glossary Off
Versions: 1 2 3 4 5 6 7 8 9 10 11 12 13 14 15 16 17 18 19 20 21 22 23 24 25 26 27 28 29 30 31 32 33 34 35 36 37 38 39 40 41 42 43 44 45 46 47 48 49 50

000
ASUS43 KLOT 220304
RWRIL

ILLINOIS REGIONAL WEATHER ROUNDUP
NATIONAL WEATHER SERVICE CHICAGO/ROMEOVILLE IL
1000 PM CDT WED JUN 21 2017

NOTE: "FAIR" INDICATES FEW OR NO CLOUDS BELOW 12,000 FEET WITH NO
SIGNIFICANT WEATHER AND/OR OBSTRUCTIONS TO VISIBILITY.

* THESE STATIONS ARE NOT UNDER NWS QUALITY CONTROL. THEY ALSO MAY NOT
  REPORT WEATHER SUCH AS PRECIPITATION OR FOG.

ILZ001-002-007-009-015-016-024-220400-
NORTHWEST ILLINOIS

CITY           SKY/WX    TMP DP  RH WIND       PRES   REMARKS
MOLINE         PTCLDY    79  67  66 SW5       29.83R HX  81
STERLING*      CLOUDY    71  68  90 E5        29.85S
SAVANNA*       MOCLDY    71  66  84 SE6       29.84R
$$

ILZ003-004-008-010-011-017-018-220400-
NORTH CENTRAL ILLINOIS

CITY           SKY/WX    TMP DP  RH WIND       PRES   REMARKS
ROCKFORD       CLOUDY    73  61  65 SE7       29.87F
FREEPORT*      PTCLDY    68  62  79 SE3       29.87R
ROCHELLE*      CLOUDY    72  65  79 SE9       29.87F
DE KALB*       CLOUDY    72  63  72 SE8       29.90S
PERU*          CLOUDY    74  67  78 SE8       29.87S
$$

ILZ005-006-012>014-019>023-220400-
NORTHEAST ILLINOIS

CITY           SKY/WX    TMP DP  RH WIND       PRES   REMARKS
CHICAGO-OHARE  MOCLDY    71  56  58 SE9       29.90S
CHICAGO-MIDWAY MOCLDY    71  59  65 E7        29.90S
AURORA         CLOUDY    71  64  78 SE3       29.90S
LANSING*       PTCLDY    71  60  68 CALM      29.92R
JOLIET*        MOCLDY    72  65  79 CALM      29.90S
WAUKEGAN       CLOUDY    65  61  87 SE5       29.90F
DUPAGE AIRPORT PTCLDY    70  62  76 SE5       29.89F
WHEELING       PTCLDY    69  58  67 E6        29.91F
MORRIS*        MOCLDY    75  65  70 E5        29.88S
ROMEOVILLE*    PTCLDY    73  59  61 SE6       29.90S
NORTHERLY ISL    N/A     66  59  78 CALM        N/A
$$

LMZ740>746-220400-
SOUTHERN LAKE MICHIGAN

STATION/POSITION SKY/WX   TEMP    WIND        PRES    VSBY  WAVE
                          AIR SEA DIR/SP/G                  HT/PER
                          (F)     (DEG/KT/KT) (MB)    (MI)  (FT/S)
SOUTHERN BUOY              64 62   80/  8/  8 1012.8          0
WILMETTE HARBOR            65 64  150/  4/  4   N/A           1/ 3
HARRISON CRIB              68     140/  3/  3   N/A
BURNHAM HARBOR             67                   N/A
CALUMET HARBOR             67      50/  3/  5 1012.6R
BURNS HARBOR               68      80/  5/  8 1013.5R
MICHIGAN CITY              74     110/  3/  4   N/A
MICHIGAN CITY 6N           69 68   90/  6/  6   N/A           1
ST. JOSEPH                 71 69  150/  4/  6 1013.2          1
$$

ILZ025>027-034>036-040-047-049-050-058-095>099-220400-
WEST-CENTRAL ILLINOIS

CITY           SKY/WX    TMP DP  RH WIND       PRES   REMARKS
QUINCY         PTCLDY    81  67  62 S7        29.87R HX  83
GALESBURG*     CLOUDY    75  70  84 SE6       29.88F
MACOMB*        CLOUDY    76  71  83 SE3       29.89S
JACKSONVILLE*  CLOUDY    82  67  60 S6        29.90R HX  84
PITTSFIELD*    CLOUDY    81  69  68 S6        29.90R HX  84
$$

ILZ028>032-037-038-041>044-048-051>054-059>061-220400-
CENTRAL ILLINOIS

CITY           SKY/WX    TMP DP  RH WIND       PRES   REMARKS
PONTIAC        CLEAR     73  72  94 SE7       29.90F
BLOOMINGTON    PTCLDY    75  69  81 SE6       29.93R
DECATUR        PTCLDY    82  68  62 SW13      29.92R HX  85
PEORIA         CLOUDY    75  73  93 CALM      29.88F
LACON*         CLOUDY    76  69  80 S12       29.84F
LINCOLN*       PTCLDY    82  73  74 S3        29.90R HX  86
SPRINGFIELD    PTCLDY    84  70  62 SW7       29.91R HX  88
TAYLORVILLE    PTCLDY    79  69  72 S8        29.92R HX  81
$$

ILZ033-039-045-046-055>057-062-063-220400-
EAST-CENTRAL ILLINOIS

CITY           SKY/WX    TMP DP  RH WIND       PRES   REMARKS
CHAMPAIGN      CLOUDY    79  71  76 S7        29.93R HX  82
RANTOUL*       CLOUDY    79  72  80 SE5       29.93R HX  81
MATTOON        PTCLDY    80  69  69 SW9       29.92R HX  83
PARIS*         MOCLDY    77  70  79 S6        29.94R
$$

ILZ079-100>102-220400-
SOUTHWEST ILLINOIS

CITY           SKY/WX    TMP DP  RH WIND       PRES   REMARKS
ALTON          MOCLDY    79  68  69 S12       29.92R HX  81
BELLEVILLE     PTCLDY    76  69  79 SW6       29.94R
CAHOKIA*       MOCLDY    80  68  66 S5        29.92R HX  83
SPARTA*        MOCLDY    77  69  76 CALM      29.96R
$$

ILZ064>066-069>071-074>076-080>082-084>086-088>090-092>094-220400-
SOUTH-CENTRAL ILLINOIS

CITY           SKY/WX    TMP DP  RH WIND       PRES   REMARKS
CARBONDALE     CLOUDY    76  70  82 S6        29.95R
CAIRO*         CLOUDY    78  69  73 SE8       29.95R HX  81
EFFINGHAM*     MOCLDY    79  68  69 S5        29.96R HX  81
MARION         MOCLDY    79  68  69 S6        29.97R HX  81
MT. VERNON     CLOUDY    76  69  79 CALM      29.96R
CENTRALIA*     MOCLDY    77  70  79 S6        29.95R
SALEM*         PTCLDY    80  68  67 S7        29.95R HX  82
$$

ILZ067-068-072-073-078-083-087-091-220400-
SOUTHEAST ILLINOIS

CITY           SKY/WX    TMP DP  RH WIND       PRES   REMARKS
LAWRENCEVILLE  CLOUDY    79  70  74 S9        29.96R HX  82
FLORA*         PTCLDY   N/A N/A N/A S8        29.96R
FAIRFIELD*     PTCLDY    77  69  76 CALM      29.95R
HARRISBURG*    MOCLDY    75  69  82 SE3       29.97R
ROBINSON*      PTCLDY    74  71  89 S7        29.95R
CARMI*         PTCLDY    73  71  92 S5        29.96S
$$

ABBREVIATIONS USED IN REMARKS
   TC - TEMPERATURE IN CELSIUS
  WCI - WIND CHILL INDEX
   HX - HEAT INDEX
  VSB - VISIBILITY
$$





USA.gov is the U.S. government's official web portal to all federal, state and local government web resources and services.